Time,TemperatureF,DewpointF,PressureIn,WindDirection,WindDirectionDegrees,WindSpeedMPH,WindSpeedGustMPH,Humidity,HourlyPrecipIn,Conditions,Clouds,dailyrainin,SoftwareType,DateUTC
2018-02-22 00:04:00,19.5,13.8,30.60,NNW,329,0.0,3.0,78,0.00,,,0.00,WUHU216DAVISVP2,2018-02-22 06:04:00,
2018-02-22 00:09:00,19.5,13.5,30.60,NNW,329,0.0,5.0,77,0.00,,,0.00,WUHU216DAVISVP2,2018-02-22 06:09:00,
2018-02-22 00:14:00,19.5,13.8,30.60,NNW,329,3.0,5.0,78,0.00,,,0.00,WUHU216DAVISVP2,2018-02-22 06:14:00,
2018-02-22 00:19:00,19.5,13.5,30.61,NNW,329,0.0,3.0,77,0.00,,,0.00,WUHU216DAVISVP2,2018-02-22 06:19:00,
2018-02-22 00:24:00,19.5,13.5,30.61,NNW,329,0.0,3.0,77,0.00,,,0.00,WUHU216DAVISVP2,2018-02-22 06:24:00,
2018-02-22 00:29:00,19.5,13.5,30.61,NNW,329,0.0,2.0,77,0.00,,,0.00,WUHU216DAVISVP2,2018-02-22 06:29:00,
2018-02-22 00:34:00,19.5,13.2,30.61,NNW,329,0.0,3.0,76,0.00,,,0.00,WUHU216DAVISVP2,2018-02-22 06:34:00,
2018-02-22 00:39:00,19.5,13.2,30.61,NNW,329,0.0,3.0,76,0.00,,,0.00,WUHU216DAVISVP2,2018-02-22 06:39:00,
2018-02-22 00:44:00,19.4,13.1,30.61,NNW,329,0.0,0.0,76,0.00,,,0.00,WUHU216DAVISVP2,2018-02-22 06:44:00,
2018-02-22 00:49:00,19.4,13.1,30.61,NNW,329,0.0,1.0,76,0.00,,,0.00,WUHU216DAVISVP2,2018-02-22 06:49:00,
2018-02-22 00:54:00,19.4,12.8,30.61,NNW,329,0.0,3.0,75,0.00,,,0.00,WUHU216DAVISVP2,2018-02-22 06:54:00,
2018-02-22 00:59:00,19.4,13.1,30.61,NNW,329,0.0,5.0,76,0.00,,,0.00,WUHU216DAVISVP2,2018-02-22 06:59:00,
2018-02-22 01:04:00,19.4,13.1,30.60,NNW,329,0.0,5.0,76,0.00,,,0.00,WUHU216DAVISVP2,2018-02-22 07:04:00,
2018-02-22 01:09:00,19.2,12.9,30.60,NNW,329,2.0,5.0,76,0.00,,,0.00,WUHU216DAVISVP2,2018-02-22 07:09:00,
2018-02-22 01:14:00,19.2,13.2,30.60,NNW,329,0.0,5.0,77,0.00,,,0.00,WUHU216DAVISVP2,2018-02-22 07:14:00,
2018-02-22 01:19:00,19.2,13.5,30.60,NNW,329,0.0,3.0,78,0.00,,,0.00,WUHU216DAVISVP2,2018-02-22 07:19:00,
2018-02-22 01:24:00,19.2,13.5,30.60,NNW,329,2.0,4.0,78,0.00,,,0.00,WUHU216DAVISVP2,2018-02-22 07:24:00,
2018-02-22 01:29:00,19.2,13.8,30.60,NNW,329,0.0,4.0,79,0.00,,,0.00,WUHU216DAVISVP2,2018-02-22 07:29:00,
2018-02-22 01:34:00,19.2,13.8,30.60,NNW,347,1.0,3.0,79,0.00,,,0.00,WUHU216DAVISVP2,2018-02-22 07:34:00,
2018-02-22 01:39:00,19.2,13.8,30.60,North,349,2.0,3.0,79,0.00,,,0.00,WUHU216DAVISVP2,2018-02-22 07:39:00,
2018-02-22 01:44:00,19.2,14.0,30.60,North,350,1.0,4.0,80,0.00,,,0.00,WUHU216DAVISVP2,2018-02-22 07:44:00,
2018-02-22 01:49:00,19.4,14.2,30.59,North,350,0.0,4.0,80,0.00,,,0.00,WUHU216DAVISVP2,2018-02-22 07:49:00,
2018-02-22 01:54:00,19.4,14.2,30.59,North,350,3.0,4.0,80,0.00,,,0.00,WUHU216DAVISVP2,2018-02-22 07:54:00,
2018-02-22 01:59:00,19.4,14.2,30.59,North,10,5.0,5.0,80,0.00,,,0.00,WUHU216DAVISVP2,2018-02-22 07:59:00,
2018-02-22 02:04:00,19.5,14.3,30.59,NNE,24,2.0,6.0,80,0.00,,,0.00,WUHU216DAVISVP2,2018-02-22 08:04:00,
2018-02-22 02:09:00,19.7,14.2,30.59,NE,41,2.0,6.0,79,0.00,,,0.00,WUHU216DAVISVP2,2018-02-22 08:09:00,
2018-02-22 02:14:00,19.7,14.2,30.59,NE,47,2.0,6.0,79,0.00,,,0.00,WUHU216DAVISVP2,2018-02-22 08:14:00,
2018-02-22 02:19:00,19.7,14.2,30.58,NE,47,2.0,6.0,79,0.00,,,0.00,WUHU216DAVISVP2,2018-02-22 08:19:00,
2018-02-22 02:24:00,19.7,14.2,30.58,NE,47,3.0,6.0,79,0.00,,,0.00,WUHU216DAVISVP2,2018-02-22 08:24:00,
2018-02-22 02:29:00,19.7,14.2,30.58,NE,38,5.0,6.0,79,0.00,,,0.00,WUHU216DAVISVP2,2018-02-22 08:29:00,
2018-02-22 02:34:00,19.9,14.2,30.57,NNE,18,2.0,6.0,78,0.00,,,0.00,WUHU216DAVISVP2,2018-02-22 08:34:00,
2018-02-22 02:39:00,19.9,14.2,30.57,ENE,58,3.0,7.0,78,0.00,,,0.00,WUHU216DAVISVP2,2018-02-22 08:39:00,
2018-02-22 02:44:00,19.9,14.2,30.57,NE,55,3.0,7.0,78,0.00,,,0.00,WUHU216DAVISVP2,2018-02-22 08:44:00,
2018-02-22 02:49:00,20.0,14.3,30.57,NE,55,5.0,6.0,78,0.00,,,0.00,WUHU216DAVISVP2,2018-02-22 08:49:00,
2018-02-22 02:54:00,20.0,14.3,30.57,NE,55,5.0,5.0,78,0.00,,,0.00,WUHU216DAVISVP2,2018-02-22 08:54:00,
2018-02-22 03:00:00,20.0,14.3,30.57,NE,55,2.0,6.0,78,0.00,,,0.00,WUHU216DAVISVP2,2018-02-22 09:00:00,
2018-02-22 03:05:00,20.2,14.7,30.57,NE,55,0.0,5.0,79,0.00,,,0.00,WUHU216DAVISVP2,2018-02-22 09:05:00,
2018-02-22 03:10:00,20.2,14.5,30.57,NE,55,0.0,3.0,78,0.00,,,0.00,WUHU216DAVISVP2,2018-02-22 09:10:00,
2018-02-22 03:15:00,20.3,14.8,30.57,NE,55,1.0,3.0,79,0.00,,,0.00,WUHU216DAVISVP2,2018-02-22 09:15:00,
2018-02-22 03:20:00,20.3,14.5,30.56,NE,55,1.0,5.0,78,0.00,,,0.00,WUHU216DAVISVP2,2018-02-22 09:20:00,
2018-02-22 03:25:00,20.3,14.8,30.56,NE,55,0.0,5.0,79,0.00,,,0.00,WUHU216DAVISVP2,2018-02-22 09:25:00,
2018-02-22 03:30:00,20.3,14.8,30.56,NE,55,4.0,4.0,79,0.00,,,0.00,WUHU216DAVISVP2,2018-02-22 09:30:00,
2018-02-22 03:35:00,20.3,15.1,30.55,NE,55,3.0,6.0,80,0.00,,,0.00,WUHU216DAVISVP2,2018-02-22 09:35:00,
2018-02-22 03:40:00,20.5,15.6,30.55,NE,55,0.0,6.0,81,0.00,,,0.00,WUHU216DAVISVP2,2018-02-22 09:40:00,
2018-02-22 03:45:00,20.5,15.6,30.55,NE,55,0.0,2.0,81,0.00,,,0.00,WUHU216DAVISVP2,2018-02-22 09:45:00,
2018-02-22 03:50:00,20.6,15.4,30.55,NE,55,1.0,3.0,80,0.00,,,0.00,WUHU216DAVISVP2,2018-02-22 09:50:00,
2018-02-22 03:55:00,20.6,15.4,30.55,NE,55,3.0,5.0,80,0.00,,,0.00,WUHU216DAVISVP2,2018-02-22 09:55:00,
2018-02-22 04:00:00,20.8,15.9,30.55,NE,55,0.0,5.0,81,0.00,,,0.00,WUHU216DAVISVP2,2018-02-22 10:00:00,
2018-02-22 04:05:00,20.8,15.6,30.55,NE,55,3.0,3.0,80,0.00,,,0.00,WUHU216DAVISVP2,2018-02-22 10:05:00,
2018-02-22 04:10:00,21.0,15.5,30.55,NE,55,0.0,3.0,79,0.00,,,0.00,WUHU216DAVISVP2,2018-02-22 10:10:00,
2018-02-22 04:15:00,21.0,15.8,30.55,NE,55,0.0,3.0,80,0.00,,,0.00,WUHU216DAVISVP2,2018-02-22 10:15:00,
2018-02-22 04:20:00,21.0,15.8,30.55,NE,54,0.0,5.0,80,0.00,,,0.00,WUHU216DAVISVP2,2018-02-22 10:20:00,
2018-02-22 04:25:00,21.0,15.8,30.55,NE,52,0.0,5.0,80,0.00,,,0.00,WUHU216DAVISVP2,2018-02-22 10:25:00,
2018-02-22 04:30:00,21.0,15.8,30.55,NE,52,0.0,3.0,80,0.00,,,0.00,WUHU216DAVISVP2,2018-02-22 10:30:00,
2018-02-22 04:35:00,21.0,15.8,30.56,NE,52,0.0,3.0,80,0.00,,,0.00,WUHU216DAVISVP2,2018-02-22 10:35:00,
2018-02-22 04:40:00,21.0,15.8,30.56,NE,52,0.0,0.0,80,0.00,,,0.00,WUHU216DAVISVP2,2018-02-22 10:40:00,
2018-02-22 04:47:00,21.0,16.1,30.56,NE,52,0.0,0.0,81,0.00,,,0.00,WUHU216DAVISVP2,2018-02-22 10:47:00,
2018-02-22 04:52:00,21.1,16.5,30.56,NE,52,0.0,0.0,82,0.00,,,0.00,WUHU216DAVISVP2,2018-02-22 10:52:00,
2018-02-22 04:57:00,21.1,16.5,30.56,NE,52,0.0,0.0,82,0.00,,,0.00,WUHU216DAVISVP2,2018-02-22 10:57:00,
2018-02-22 05:02:00,21.0,16.1,30.57,NE,47,1.0,6.0,81,0.00,,,0.00,WUHU216DAVISVP2,2018-02-22 11:02:00,
2018-02-22 05:07:00,21.0,16.4,30.57,NE,45,2.0,6.0,82,0.00,,,0.00,WUHU216DAVISVP2,2018-02-22 11:07:00,
2018-02-22 05:12:00,21.0,16.4,30.57,NE,44,3.0,5.0,82,0.00,,,0.00,WUHU216DAVISVP2,2018-02-22 11:12:00,
2018-02-22 05:17:00,21.0,16.4,30.57,NE,42,2.0,5.0,82,0.00,,,0.00,WUHU216DAVISVP2,2018-02-22 11:17:00,
2018-02-22 05:22:00,21.0,16.4,30.57,NE,37,1.0,5.0,82,0.00,,,0.00,WUHU216DAVISVP2,2018-02-22 11:22:00,
2018-02-22 05:27:00,21.0,16.6,30.57,NNE,27,2.0,6.0,83,0.00,,,0.00,WUHU216DAVISVP2,2018-02-22 11:27:00,
2018-02-22 05:32:00,21.0,16.6,30.57,NNE,25,2.0,6.0,83,0.00,,,0.00,WUHU216DAVISVP2,2018-02-22 11:32:00,
2018-02-22 05:37:00,21.0,16.6,30.57,NNE,25,0.0,5.0,83,0.00,,,0.00,WUHU216DAVISVP2,2018-02-22 11:37:00,
2018-02-22 05:42:00,21.0,16.6,30.57,NNE,24,0.0,5.0,83,0.00,,,0.00,WUHU216DAVISVP2,2018-02-22 11:42:00,
2018-02-22 05:47:00,21.0,16.6,30.58,NNE,24,0.0,5.0,83,0.00,,,0.00,WUHU216DAVISVP2,2018-02-22 11:47:00,
2018-02-22 05:52:00,21.0,16.6,30.58,NNE,24,0.0,5.0,83,0.00,,,0.00,WUHU216DAVISVP2,2018-02-22 11:52:00,
2018-02-22 05:57:00,21.0,16.9,30.58,NNE,23,2.0,5.0,84,0.00,,,0.00,WUHU216DAVISVP2,2018-02-22 11:57:00,
2018-02-22 06:02:00,21.0,16.9,30.58,North,0,4.0,7.0,84,0.00,,,0.00,WUHU216DAVISVP2,2018-02-22 12:02:00,
2018-02-22 06:07:00,21.1,17.0,30.58,NNW,342,5.0,8.0,84,0.00,,,0.00,WUHU216DAVISVP2,2018-02-22 12:07:00,
2018-02-22 06:08:00,21.1,17.3,30.58,NNW,343,7.0,8.0,85,0.00,,,0.00,WUHU216DAVISVP2,2018-02-22 12:08:00,
2018-02-22 06:13:00,21.0,16.9,30.58,NNW,342,7.0,8.0,84,0.00,,,0.00,WUHU216DAVISVP2,2018-02-22 12:13:00,
2018-02-22 06:18:00,20.8,16.7,30.59,NNW,344,5.0,10.0,84,0.00,,,0.00,WUHU216DAVISVP2,2018-02-22 12:18:00,
2018-02-22 06:23:00,20.6,16.5,30.59,NNW,344,2.0,10.0,84,0.00,,,0.00,WUHU216DAVISVP2,2018-02-22 12:23:00,
2018-02-22 06:28:00,20.6,16.5,30.59,North,0,3.0,7.0,84,0.00,,,0.00,WUHU216DAVISVP2,2018-02-22 12:28:00,
2018-02-22 06:33:00,20.5,16.4,30.58,North,6,4.0,7.0,84,0.00,,,0.00,WUHU216DAVISVP2,2018-02-22 12:33:00,
2018-02-22 06:38:00,20.5,16.7,30.58,North,6,0.0,7.0,85,0.00,,,0.00,WUHU216DAVISVP2,2018-02-22 12:38:00,
2018-02-22 06:43:00,20.5,16.7,30.58,North,6,0.0,4.0,85,0.00,,,0.00,WUHU216DAVISVP2,2018-02-22 12:43:00,
2018-02-22 06:48:00,20.5,16.7,30.59,North,357,2.0,6.0,85,0.00,,,0.00,WUHU216DAVISVP2,2018-02-22 12:48:00,
2018-02-22 06:53:00,20.6,17.0,30.59,North,357,3.0,6.0,86,0.00,,,0.00,WUHU216DAVISVP2,2018-02-22 12:53:00,
2018-02-22 06:58:00,20.6,17.0,30.59,North,359,0.0,5.0,86,0.00,,,0.00,WUHU216DAVISVP2,2018-02-22 12:58:00,
2018-02-22 07:03:00,20.6,17.0,30.58,North,359,0.0,5.0,86,0.00,,,0.00,WUHU216DAVISVP2,2018-02-22 13:03:00,
2018-02-22 07:08:00,20.8,17.0,30.58,North,0,0.0,5.0,85,0.00,,,0.00,WUHU216DAVISVP2,2018-02-22 13:08:00,
2018-02-22 07:13:00,21.0,17.2,30.58,North,0,2.0,6.0,85,0.00,,,0.00,WUHU216DAVISVP2,2018-02-22 13:13:00,
2018-02-22 07:18:00,21.3,17.5,30.59,North,0,2.0,6.0,85,0.00,,,0.00,WUHU216DAVISVP2,2018-02-22 13:18:00,
2018-02-22 07:23:00,21.4,17.3,30.59,North,0,4.0,5.0,84,0.00,,,0.00,WUHU216DAVISVP2,2018-02-22 13:23:00,
2018-02-22 07:28:00,21.8,17.7,30.59,North,0,0.0,5.0,84,0.00,,,0.00,WUHU216DAVISVP2,2018-02-22 13:28:00,
2018-02-22 07:33:00,21.9,17.8,30.60,North,0,3.0,6.0,84,0.00,,,0.00,WUHU216DAVISVP2,2018-02-22 13:33:00,
2018-02-22 07:38:00,22.1,18.3,30.60,North,0,0.0,7.0,85,0.00,,,0.00,WUHU216DAVISVP2,2018-02-22 13:38:00,
2018-02-22 07:43:00,22.1,18.3,30.60,North,0,5.0,7.0,85,0.00,,,0.00,WUHU216DAVISVP2,2018-02-22 13:43:00,
2018-02-22 07:48:00,22.2,18.3,30.60,North,0,0.0,6.0,85,0.00,,,0.00,WUHU216DAVISVP2,2018-02-22 13:48:00,
2018-02-22 07:53:00,22.2,18.3,30.60,North,0,4.0,6.0,85,0.00,,,0.00,WUHU216DAVISVP2,2018-02-22 13:53:00,
2018-02-22 07:58:00,22.2,18.3,30.60,NNE,21,4.0,7.0,85,0.00,,,0.00,WUHU216DAVISVP2,2018-02-22 13:58:00,
2018-02-22 08:03:00,22.4,18.5,30.58,North,3,4.0,9.0,85,0.00,,,0.00,WUHU216DAVISVP2,2018-02-22 14:03:00,
2018-02-22 08:08:00,22.5,18.6,30.58,NNE,14,6.0,9.0,85,0.00,,,0.00,WUHU216DAVISVP2,2018-02-22 14:08:00,
2018-02-22 08:13:00,22.7,19.1,30.58,North,0,7.0,8.0,86,0.00,,,0.00,WUHU216DAVISVP2,2018-02-22 14:13:00,
2018-02-22 08:18:00,22.9,19.3,30.58,NNE,13,5.0,7.0,86,0.00,,,0.00,WUHU216DAVISVP2,2018-02-22 14:18:00,
2018-02-22 08:23:00,23.2,19.6,30.58,North,10,3.0,7.0,86,0.00,,,0.00,WUHU216DAVISVP2,2018-02-22 14:23:00,
2018-02-22 08:28:00,23.3,19.7,30.58,North,6,2.0,6.0,86,0.00,,,0.00,WUHU216DAVISVP2,2018-02-22 14:28:00,
2018-02-22 08:33:00,23.3,19.7,30.58,NE,48,3.0,6.0,86,0.00,,,0.00,WUHU216DAVISVP2,2018-02-22 14:33:00,
2018-02-22 08:38:00,23.3,19.7,30.58,NE,42,1.0,6.0,86,0.00,,,0.00,WUHU216DAVISVP2,2018-02-22 14:38:00,
2018-02-22 08:43:00,23.6,20.3,30.58,NE,56,1.0,6.0,87,0.00,,,0.00,WUHU216DAVISVP2,2018-02-22 14:43:00,
2018-02-22 08:48:00,23.8,20.5,30.57,ENE,61,3.0,7.0,87,0.00,,,0.00,WUHU216DAVISVP2,2018-02-22 14:48:00,
2018-02-22 08:53:00,24.1,21.0,30.57,NE,56,0.0,7.0,88,0.00,,,0.00,WUHU216DAVISVP2,2018-02-22 14:53:00,
2018-02-22 08:58:00,24.4,21.0,30.57,ENE,69,2.0,7.0,87,0.00,,,0.00,WUHU216DAVISVP2,2018-02-22 14:58:00,
2018-02-22 09:03:00,24.7,21.3,30.57,East,80,2.0,7.0,87,0.00,,,0.00,WUHU216DAVISVP2,2018-02-22 15:03:00,
2018-02-22 09:08:00,24.8,21.4,30.57,ENE,73,5.0,10.0,87,0.00,,,0.00,WUHU216DAVISVP2,2018-02-22 15:08:00,
2018-02-22 09:13:00,24.8,21.4,30.57,ENE,72,2.0,10.0,87,0.00,,,0.00,WUHU216DAVISVP2,2018-02-22 15:13:00,
2018-02-22 09:18:00,25.1,22.0,30.58,East,95,3.0,10.0,88,0.00,,,0.00,WUHU216DAVISVP2,2018-02-22 15:18:00,
2018-02-22 09:23:00,25.1,21.7,30.58,ENE,78,1.0,10.0,87,0.00,,,0.00,WUHU216DAVISVP2,2018-02-22 15:23:00,
2018-02-22 09:28:00,25.3,21.9,30.58,East,96,0.0,6.0,87,0.00,,,0.00,WUHU216DAVISVP2,2018-02-22 15:28:00,
2018-02-22 09:33:00,25.6,22.2,30.58,ENE,61,0.0,6.0,87,0.00,,,0.00,WUHU216DAVISVP2,2018-02-22 15:33:00,
2018-02-22 09:38:00,25.8,22.7,30.58,ENE,61,0.0,5.0,88,0.00,,,0.00,WUHU216DAVISVP2,2018-02-22 15:38:00,
2018-02-22 09:43:00,26.1,22.5,30.58,NNE,18,4.0,6.0,86,0.00,,,0.00,WUHU216DAVISVP2,2018-02-22 15:43:00,
2018-02-22 09:48:00,26.4,22.7,30.58,NNE,18,0.0,6.0,86,0.00,,,0.00,WUHU216DAVISVP2,2018-02-22 15:48:00,
2018-02-22 09:53:00,26.6,22.9,30.58,NNE,16,0.0,6.0,86,0.00,,,0.00,WUHU216DAVISVP2,2018-02-22 15:53:00,
2018-02-22 09:58:00,27.0,23.3,30.58,NNE,18,3.0,6.0,86,0.00,,,0.00,WUHU216DAVISVP2,2018-02-22 15:58:00,
2018-02-22 10:03:00,27.3,23.6,30.58,NNE,23,0.0,3.0,86,0.00,,,0.00,WUHU216DAVISVP2,2018-02-22 16:03:00,
2018-02-22 10:08:00,27.6,23.7,30.58,NE,55,3.0,6.0,85,0.00,,,0.00,WUHU216DAVISVP2,2018-02-22 16:08:00,
2018-02-22 10:13:00,27.6,23.4,30.58,ENE,59,5.0,8.0,84,0.00,,,0.00,WUHU216DAVISVP2,2018-02-22 16:13:00,
2018-02-22 10:18:00,27.9,23.7,30.56,NE,48,5.0,8.0,84,0.00,,,0.00,WUHU216DAVISVP2,2018-02-22 16:18:00,
2018-02-22 10:23:00,28.2,23.7,30.56,NE,56,6.0,11.0,83,0.00,,,0.00,WUHU216DAVISVP2,2018-02-22 16:23:00,
2018-02-22 10:28:00,28.5,23.7,30.56,ENE,62,2.0,11.0,82,0.00,,,0.00,WUHU216DAVISVP2,2018-02-22 16:28:00,
2018-02-22 10:33:00,28.5,23.7,30.57,ENE,68,2.0,11.0,82,0.00,,,0.00,WUHU216DAVISVP2,2018-02-22 16:33:00,
2018-02-22 10:38:00,28.8,23.7,30.57,ENE,62,2.0,11.0,81,0.00,,,0.00,WUHU216DAVISVP2,2018-02-22 16:38:00,
2018-02-22 10:43:00,29.0,23.9,30.57,ENE,58,0.0,8.0,81,0.00,,,0.00,WUHU216DAVISVP2,2018-02-22 16:43:00,
2018-02-22 10:48:00,29.1,23.7,30.56,ENE,71,2.0,7.0,80,0.00,,,0.00,WUHU216DAVISVP2,2018-02-22 16:48:00,
2018-02-22 10:53:00,29.1,24.0,30.56,ENE,66,2.0,7.0,81,0.00,,,0.00,WUHU216DAVISVP2,2018-02-22 16:53:00,
2018-02-22 10:58:00,29.5,24.4,30.56,ENE,61,4.0,8.0,81,0.00,,,0.00,WUHU216DAVISVP2,2018-02-22 16:58:00,
2018-02-22 11:03:00,29.8,24.4,30.56,ENE,68,3.0,8.0,80,0.00,,,0.00,WUHU216DAVISVP2,2018-02-22 17:03:00,
2018-02-22 11:08:00,30.1,24.4,30.56,NE,48,3.0,7.0,79,0.00,,,0.00,WUHU216DAVISVP2,2018-02-22 17:08:00,
2018-02-22 11:13:00,30.7,25.0,30.56,NE,55,4.0,7.0,79,0.00,,,0.00,WUHU216DAVISVP2,2018-02-22 17:13:00,
2018-02-22 11:18:00,31.0,25.6,30.54,ENE,66,2.0,7.0,80,0.00,,,0.00,WUHU216DAVISVP2,2018-02-22 17:18:00,
2018-02-22 11:23:00,31.3,24.6,30.54,NE,45,2.0,7.0,76,0.00,,,0.00,WUHU216DAVISVP2,2018-02-22 17:23:00,
2018-02-22 11:28:00,31.2,24.5,30.54,NE,54,6.0,9.0,76,0.00,,,0.00,WUHU216DAVISVP2,2018-02-22 17:28:00,
2018-02-22 11:33:00,31.3,25.0,30.53,NE,49,3.0,9.0,77,0.00,,,0.00,WUHU216DAVISVP2,2018-02-22 17:33:00,
2018-02-22 11:38:00,31.6,25.2,30.53,NE,56,4.0,10.0,77,0.00,,,0.00,WUHU216DAVISVP2,2018-02-22 17:38:00,
2018-02-22 11:43:00,31.8,24.8,30.53,ENE,64,4.0,10.0,75,0.00,,,0.00,WUHU216DAVISVP2,2018-02-22 17:43:00,
2018-02-22 11:48:00,31.9,24.9,30.53,East,90,7.0,7.0,75,0.00,,,0.00,WUHU216DAVISVP2,2018-02-22 17:48:00,
2018-02-22 11:53:00,31.5,24.2,30.53,East,85,5.0,10.0,74,0.00,,,0.00,WUHU216DAVISVP2,2018-02-22 17:53:00,
2018-02-22 11:58:00,31.6,24.6,30.53,East,100,8.0,10.0,75,0.00,,,0.00,WUHU216DAVISVP2,2018-02-22 17:58:00,
2018-02-22 12:03:00,31.5,24.2,30.53,East,82,3.0,10.0,74,0.00,,,0.00,WUHU216DAVISVP2,2018-02-22 18:03:00,
2018-02-22 12:08:00,31.5,24.5,30.53,East,79,0.0,10.0,75,0.00,,,0.00,WUHU216DAVISVP2,2018-02-22 18:08:00,
2018-02-22 12:13:00,31.6,24.3,30.53,ENE,71,2.0,7.0,74,0.00,,,0.00,WUHU216DAVISVP2,2018-02-22 18:13:00,
2018-02-22 12:18:00,31.6,24.3,30.52,East,86,3.0,7.0,74,0.00,,,0.00,WUHU216DAVISVP2,2018-02-22 18:18:00,
2018-02-22 12:23:00,31.8,24.2,30.52,East,82,4.0,7.0,73,0.00,,,0.00,WUHU216DAVISVP2,2018-02-22 18:23:00,
2018-02-22 12:28:00,31.8,23.9,30.52,ENE,61,2.0,7.0,72,0.00,,,0.00,WUHU216DAVISVP2,2018-02-22 18:28:00,
2018-02-22 12:33:00,31.8,23.8,30.51,ENE,62,3.0,7.0,72,0.00,,,0.00,WUHU216DAVISVP2,2018-02-22 18:33:00,
2018-02-22 12:38:00,31.9,23.6,30.51,ENE,71,1.0,7.0,71,0.00,,,0.00,WUHU216DAVISVP2,2018-02-22 18:38:00,
2018-02-22 12:43:00,32.1,24.1,30.51,ENE,68,1.0,7.0,72,0.00,,,0.00,WUHU216DAVISVP2,2018-02-22 18:43:00,
2018-02-22 12:48:00,32.1,24.1,30.50,East,89,0.0,10.0,72,0.00,,,0.00,WUHU216DAVISVP2,2018-02-22 18:48:00,
2018-02-22 12:53:00,32.2,24.6,30.50,ENE,68,3.0,10.0,73,0.00,,,0.00,WUHU216DAVISVP2,2018-02-22 18:53:00,
2018-02-22 12:58:00,32.1,24.5,30.50,ENE,68,0.0,6.0,73,0.00,,,0.00,WUHU216DAVISVP2,2018-02-22 18:58:00,
2018-02-22 13:03:00,32.2,24.2,30.50,NE,49,0.0,7.0,72,0.00,,,0.00,WUHU216DAVISVP2,2018-02-22 19:03:00,
2018-02-22 13:08:00,32.2,24.2,30.50,East,82,4.0,7.0,72,0.00,,,0.00,WUHU216DAVISVP2,2018-02-22 19:08:00,
2018-02-22 13:13:00,32.2,24.2,30.50,East,89,5.0,8.0,72,0.00,,,0.00,WUHU216DAVISVP2,2018-02-22 19:13:00,
2018-02-22 13:18:00,32.2,23.2,30.48,East,86,7.0,8.0,69,0.00,,,0.00,WUHU216DAVISVP2,2018-02-22 19:18:00,
2018-02-22 13:23:00,31.9,24.0,30.48,East,95,8.0,10.0,72,0.00,,,0.00,WUHU216DAVISVP2,2018-02-22 19:23:00,
2018-02-22 13:28:00,32.2,24.2,30.48,NE,47,2.0,10.0,72,0.00,,,0.00,WUHU216DAVISVP2,2018-02-22 19:28:00,
2018-02-22 13:33:00,32.2,23.6,30.48,East,85,5.0,9.0,70,0.00,,,0.00,WUHU216DAVISVP2,2018-02-22 19:33:00,
2018-02-22 13:38:00,32.2,24.2,30.48,East,92,4.0,9.0,72,0.00,,,0.00,WUHU216DAVISVP2,2018-02-22 19:38:00,
2018-02-22 13:43:00,32.1,22.8,30.48,ENE,75,5.0,9.0,68,0.00,,,0.00,WUHU216DAVISVP2,2018-02-22 19:43:00,
2018-02-22 13:48:00,32.1,23.8,30.46,NE,55,5.0,9.0,71,0.00,,,0.00,WUHU216DAVISVP2,2018-02-22 19:48:00,
2018-02-22 13:53:00,32.2,24.6,30.46,East,92,6.0,8.0,73,0.00,,,0.00,WUHU216DAVISVP2,2018-02-22 19:53:00,
2018-02-22 13:58:00,32.2,25.2,30.46,East,96,7.0,11.0,75,0.00,,,0.00,WUHU216DAVISVP2,2018-02-22 19:58:00,
2018-02-22 14:03:00,32.4,24.4,30.46,ENE,65,2.0,11.0,72,0.00,,,0.00,WUHU216DAVISVP2,2018-02-22 20:03:00,
2018-02-22 14:08:00,32.4,23.7,30.46,ENE,76,6.0,11.0,70,0.00,,,0.00,WUHU216DAVISVP2,2018-02-22 20:08:00,
2018-02-22 14:13:00,32.4,24.4,30.46,East,85,2.0,11.0,72,0.00,,,0.00,WUHU216DAVISVP2,2018-02-22 20:13:00,
2018-02-22 14:18:00,32.8,24.8,30.45,East,96,0.0,9.0,72,0.00,,,0.00,WUHU216DAVISVP2,2018-02-22 20:18:00,
2018-02-22 14:23:00,33.1,25.4,30.45,ENE,66,4.0,10.0,73,0.00,,,0.00,WUHU216DAVISVP2,2018-02-22 20:23:00,
2018-02-22 14:28:00,33.2,25.2,30.45,ENE,78,2.0,10.0,72,0.00,,,0.00,WUHU216DAVISVP2,2018-02-22 20:28:00,
2018-02-22 14:33:00,32.9,24.2,30.44,ENE,66,4.0,8.0,70,0.00,,,0.00,WUHU216DAVISVP2,2018-02-22 20:33:00,
2018-02-22 14:38:00,32.8,24.5,30.44,East,99,10.0,11.0,71,0.00,,,0.00,WUHU216DAVISVP2,2018-02-22 20:38:00,
2018-02-22 14:43:00,32.7,24.3,30.44,East,85,3.0,11.0,71,0.00,,,0.00,WUHU216DAVISVP2,2018-02-22 20:43:00,
2018-02-22 14:48:00,32.9,23.8,30.43,ENE,78,4.0,11.0,69,0.00,,,0.00,WUHU216DAVISVP2,2018-02-22 20:48:00,
2018-02-22 14:53:00,32.8,23.7,30.43,East,93,9.0,11.0,69,0.00,,,0.00,WUHU216DAVISVP2,2018-02-22 20:53:00,
2018-02-22 14:58:00,32.7,24.4,30.43,East,89,6.0,9.0,71,0.00,,,0.00,WUHU216DAVISVP2,2018-02-22 20:58:00,
2018-02-22 15:03:00,32.8,25.1,30.42,ENE,78,0.0,9.0,73,0.00,,,0.00,WUHU216DAVISVP2,2018-02-22 21:03:00,
2018-02-22 15:08:00,32.9,24.9,30.42,NE,52,3.0,9.0,72,0.00,,,0.00,WUHU216DAVISVP2,2018-02-22 21:08:00,
2018-02-22 15:13:00,32.7,24.7,30.42,ENE,65,5.0,9.0,72,0.00,,,0.00,WUHU216DAVISVP2,2018-02-22 21:13:00,
2018-02-22 15:18:00,32.5,24.9,30.43,ENE,65,2.0,9.0,73,0.00,,,0.00,WUHU216DAVISVP2,2018-02-22 21:18:00,
2018-02-22 15:23:00,32.2,23.9,30.43,ENE,71,2.0,9.0,71,0.00,,,0.00,WUHU216DAVISVP2,2018-02-22 21:23:00,
2018-02-22 15:29:00,32.1,24.5,30.43,ENE,66,2.0,8.0,73,0.00,,,0.00,WUHU216DAVISVP2,2018-02-22 21:29:00,
2018-02-22 15:34:00,32.1,24.7,30.43,ENE,75,3.0,8.0,74,0.00,,,0.00,WUHU216DAVISVP2,2018-02-22 21:34:00,
2018-02-22 15:39:00,32.1,24.7,30.43,East,90,6.0,8.0,74,0.00,,,0.00,WUHU216DAVISVP2,2018-02-22 21:39:00,
2018-02-22 15:44:00,31.9,25.2,30.43,NE,55,6.0,8.0,76,0.00,,,0.00,WUHU216DAVISVP2,2018-02-22 21:44:00,
2018-02-22 15:49:00,31.9,25.2,30.44,ENE,75,2.0,7.0,76,0.00,,,0.00,WUHU216DAVISVP2,2018-02-22 21:49:00,
2018-02-22 15:54:00,31.9,25.5,30.44,ENE,64,4.0,7.0,77,0.00,,,0.00,WUHU216DAVISVP2,2018-02-22 21:54:00,
2018-02-22 15:59:00,31.8,25.7,30.44,East,92,5.0,7.0,78,0.00,,,0.00,WUHU216DAVISVP2,2018-02-22 21:59:00,
2018-02-22 16:04:00,31.6,26.1,30.46,ENE,76,5.0,7.0,80,0.00,,,0.00,WUHU216DAVISVP2,2018-02-22 22:04:00,
2018-02-22 16:09:00,31.5,26.0,30.46,East,90,7.0,8.0,80,0.00,,,0.00,WUHU216DAVISVP2,2018-02-22 22:09:00,
2018-02-22 16:14:00,31.3,26.1,30.46,East,79,5.0,8.0,81,0.00,,,0.00,WUHU216DAVISVP2,2018-02-22 22:14:00,
2018-02-22 16:19:00,31.3,26.1,30.45,ENE,59,4.0,7.0,81,0.00,,,0.00,WUHU216DAVISVP2,2018-02-22 22:19:00,
2018-02-22 16:24:00,31.2,26.0,30.45,NE,48,2.0,7.0,81,0.00,,,0.00,WUHU216DAVISVP2,2018-02-22 22:24:00,
2018-02-22 16:28:00,31.0,26.1,30.45,ENE,65,2.0,7.0,82,0.00,,,0.00,WUHU216DAVISVP2,2018-02-22 22:28:00,
2018-02-22 16:29:00,31.0,26.1,30.45,ENE,65,3.0,7.0,82,0.00,,,0.00,WUHU216DAVISVP2,2018-02-22 22:29:00,
2018-02-22 16:34:00,31.0,26.1,30.43,NE,41,3.0,8.0,82,0.00,,,0.00,WUHU216DAVISVP2,2018-02-22 22:34:00,
2018-02-22 16:39:00,30.9,26.0,30.43,NE,52,4.0,8.0,82,0.00,,,0.00,WUHU216DAVISVP2,2018-02-22 22:39:00,
2018-02-22 16:44:00,30.9,26.0,30.43,NE,49,1.0,7.0,82,0.00,,,0.00,WUHU216DAVISVP2,2018-02-22 22:44:00,
2018-02-22 16:49:00,30.9,26.3,30.43,ENE,58,0.0,10.0,83,0.00,,,0.00,WUHU216DAVISVP2,2018-02-22 22:49:00,